CZ-6A DEB, 54592

Orbit data source: Space-Track

CZ-6A DEB, 54592 is space debris in SSO originally from a launch on Fri, 11 Nov 2022 UTC launched from the Taiyaun Space Center, China (TSC). Debris objects in space refer to the collection of defunct objects orbiting the Earth. Examples of debris include non-operational satellites, rocket bodies, and fragments generated from explosions, collisions, or faulty payload assembly.

Loading next visibility...
Identifier
54592, 2022-151MS
Orbit
SSO
Country
Flag of CNCN / PRC
Related business
Manufacturer
SAST
Mission
Spacecraft
Bus & Motor
Unknown
Mass
Unknown
Launch date (UTC)
2022-11-11 (4 years ago)
Launch vehicle
Unknown
Launch site
Taiyaun Space Center, China (TSC)
Object type
Payload
Rocket body
Debris
Shape & HBR
Unknown shape, 0.1 m
Radar Cross Section
Small (<0.1 m²)

Expand to show TLE details & history
Last TLE update: 2 days ago

TLE from 2 days ago
0 CZ-6A DEB
1 54592U 22151MS  26171.09662479  .00016847  00000-0  19391-2 0  9997
2 54592  98.5134 225.1780 0039007 256.7385 102.9475 14.85270262190529
Epoch: 2026-06-20T02:19Z
TLE epoch observation values (Epoch: 2026-06-20T02:19:08.381Z)
Latitude
-0.00014°
Longitude
-77.92305°
Altitude
621.959 km
Speed
7.544 km/s
True Right ascension
15h 00m 42s
True Declination
0° 00' 00"
Sunlit
Object was in full shadow at epoch
Visualization orbit readout
Latitude
Unknown
Longitude
Unknown
Altitude
Unknown
Speed
Unknown
Apparent Right ascension
Unknown
Apparent Declination
Unknown
Sunlit
N/A
Visualization observer readout
Local Sidereal Time
21:24:34
Azimuth
Unknown
Elevation
Unknown
Doppler factor
Unknown
Orbital elements
Apogee altitude
637.058 km
Perigee altitude
582.542 km
Semi-major axis
6,987.937 km
Eccentricity
0.0039
Inclination
98.5134°
RAAN
225.178°
Arg. of periapsis
256.7385°
True anomaly
103.38264°
Mean anomaly
102.9475°
Eccentric anomaly
103.16512°
Mean motion
3.71552 °/min
Orbital period
96.89 mins
BSTAR
0.0019391
Loading maneuver chart data...
Computing Atmospheric mass density...
Loading historical data...
Loading historical data...
Loading historical data...
Loading historical data...
Loading historical data...
Loading historical data...
Loading historical data...

Documentation

Showing up to 5 results
|